[TLELIST] Archives

 

[TLELIST] Current TLEs

May 21st 2025 PDT

HST 1 20580U 90037B 25140.95588789 .00005751 00000-0 21534-3 0 9991 2 20580 28.4679 229.4616 0002842 139.9213 220.1592 15.25046011728785 ISS (ZARYA) 1 25544U 98067A 25141.33820368 .00008211 00000-0 15360-3 0 9996 2 25544 51.6382 80.0845 0002544 127.0828 16.1893 15.49641181510997 CXO 1 25867U 99040B 25142.98848869 .00000640 00000-0 00000+0 0 9993 2 25867 48.9452 130.9326 8464725 309.0591 359.8940 0.37807892 27000 ...Continue Reading

[TLELIST] Current TLEs

May 21st 2025 PDT

HST 1 20580U 90037B 25140.95588789 .00005751 00000-0 21534-3 0 9991 2 20580 28.4679 229.4616 0002842 139.9213 220.1592 15.25046011728785 ISS (ZARYA) 1 25544U 98067A 25141.33820368 .00008211 00000-0 15360-3 0 9996 2 25544 51.6382 80.0845 0002544 127.0828 16.1893 15.49641181510997 CXO 1 25867U 99040B 25142.98848869 .00000640 00000-0 00000+0 0 9993 2 25867 48.9452 130.9326 8464725 309.0591 359.8940 0.37807892 27000 ...Continue Reading

[TLELIST] Current TLEs

May 20th 2025 PDT

HST 1 20580U 90037B 25139.58163622 .00005946 00000-0 22302-3 0 9993 2 20580 28.4679 238.7732 0002878 126.1741 233.9120 15.25030744728572 ISS (ZARYA) 1 25544U 98067A 25140.37106448 .00008538 00000-0 15947-3 0 9998 2 25544 51.6374 84.8752 0002574 126.1548 18.1995 15.49625973510849 CXO 1 25867U 99040B 25140.34524790 .00000758 00000-0 00000-0 0 9996 2 25867 48.8715 131.0899 8466009 309.0086 0.0284 0.37801937 15832 ...Continue Reading

[TLELIST] Current TLEs

May 20th 2025 PDT

HST 1 20580U 90037B 25139.58163622 .00005946 00000-0 22302-3 0 9993 2 20580 28.4679 238.7732 0002878 126.1741 233.9120 15.25030744728572 ISS (ZARYA) 1 25544U 98067A 25140.37106448 .00008538 00000-0 15947-3 0 9998 2 25544 51.6374 84.8752 0002574 126.1548 18.1995 15.49625973510849 CXO 1 25867U 99040B 25140.34524790 .00000758 00000-0 00000-0 0 9996 2 25867 48.8715 131.0899 8466009 309.0086 0.0284 0.37801937 15832 ...Continue Reading

[TLELIST] Current TLEs

May 19th 2025 PDT

HST 1 20580U 90037B 25138.60001958 .00007618 00000-0 28808-3 0 9993 2 20580 28.4680 245.4244 0002898 116.3875 243.7017 15.25020924728166 ISS (ZARYA) 1 25544U 98067A 25139.18441541 .00007929 00000-0 14879-3 0 9997 2 25544 51.6355 90.7571 0002193 124.9576 235.1619 15.49604105510665 CXO 1 25867U 99040B 25140.34524790 .00000758 00000-0 00000-0 0 9996 2 25867 48.8715 131.0899 8466009 309.0086 0.0284 0.37801937 15832 ...Continue Reading

[TLELIST] Current TLEs

May 18th 2025 PDT

HST 1 20580U 90037B 25137.61839470 .00008126 00000-0 30797-3 0 9996 2 20580 28.4681 252.0748 0002898 106.8448 253.2464 15.25008337728010 ISS (ZARYA) 1 25544U 98067A 25138.15257033 .00009587 00000-0 17829-3 0 9994 2 25544 51.6355 95.8664 0002230 121.5652 238.5554 15.49586893510505 CXO 1 25867U 99040B 25140.34524790 .00000758 00000-0 00000-0 0 9996 2 25867 48.8715 131.0899 8466009 309.0086 0.0284 0.37801937 15832 ...Continue Reading

[TLELIST] Current TLEs

May 18th 2025 PDT

HST 1 20580U 90037B 25137.61839470 .00008126 00000-0 30797-3 0 9996 2 20580 28.4681 252.0748 0002898 106.8448 253.2464 15.25008337728010 ISS (ZARYA) 1 25544U 98067A 25138.15257033 .00009587 00000-0 17829-3 0 9994 2 25544 51.6355 95.8664 0002230 121.5652 238.5554 15.49586893510505 CXO 1 25867U 99040B 25140.34524790 .00000758 00000-0 00000-0 0 9996 2 25867 48.8715 131.0899 8466009 309.0086 0.0284 0.37801937 15832 ...Continue Reading

[TLELIST] Current TLEs

May 17th 2025 PDT

HST 1 20580U 90037B 25136.57131820 .00006233 00000-0 23447-3 0 9995 2 20580 28.4682 259.1685 0002931 96.5554 263.5374 15.24991329727856 ISS (ZARYA) 1 25544U 98067A 25137.18520377 .00009236 00000-0 17217-3 0 9992 2 25544 51.6353 100.6559 0002290 118.5372 241.5847 15.49569303510351 CXO 1 25867U 99040B 25137.70059221 .00000763 00000-0 00000-0 0 9990 2 25867 48.8168 131.2054 8469154 308.9956 359.9300 0.37800888 15825 ...Continue Reading

[TLELIST] Current TLEs

May 17th 2025 PDT

HST 1 20580U 90037B 25136.57131820 .00006233 00000-0 23447-3 0 9995 2 20580 28.4682 259.1685 0002931 96.5554 263.5374 15.24991329727856 ISS (ZARYA) 1 25544U 98067A 25137.18520377 .00009236 00000-0 17217-3 0 9992 2 25544 51.6353 100.6559 0002290 118.5372 241.5847 15.49569303510351 CXO 1 25867U 99040B 25137.70059221 .00000763 00000-0 00000-0 0 9990 2 25867 48.8168 131.2054 8469154 308.9956 359.9300 0.37800888 15825 ...Continue Reading

[TLELIST] Current TLEs

May 16th 2025 PDT

HST 1 20580U 90037B 25135.58967485 .00006512 00000-0 24540-3 0 9994 2 20580 28.4683 265.8189 0002920 87.0937 272.9991 15.24979657727701 ISS (ZARYA) 1 25544U 98067A 25136.37055786 .00008281 00000-0 15529-3 0 9992 2 25544 51.6360 104.6843 0002566 114.2967 18.3939 15.49556806510220 CXO 1 25867U 99040B 25137.70059221 .00000763 00000-0 00000-0 0 9990 2 25867 48.8168 131.2054 8469154 308.9956 359.9300 0.37800888 15825 ...Continue Reading
  • This mailing list is a public mailing list - anyone may join or leave, at any time.
  • This mailing list is announce-only.

International Space Station (ISS) / Hubble Space Telescope (HST) / Chandra X-Ray Observatory Orbital Data via EMAIL

Privacy Policy:

Private list